Weather History for Imperial, CA

Change the Weather History Date:

Tuesday, November 20, 2012

  Actual Average Record
Temperature  
Mean Temperature 64 °F -  
Max Temperature 79 °F 74 °F 87 °F (1954)
Min Temperature 48 °F 47 °F 33 °F (1956)
Degree Days  
Heating Degree Days 2    
Growing Degree Days 14 (Base 50)    
Moisture  
Dew Point 41 °F    
Average Humidity 49    
Maximum Humidity 71    
Minimum Humidity 25    
Precipitation  
Precipitation 0.00 in - - ()
Sea Level Pressure  
Sea Level Pressure 30.04 in    
Wind  
Wind Speed 4 mph (West)    
Max Wind Speed 7 mph    
Max Gust Speed -    
Visibility 10 miles    
Events      
Averages and records for this station are not official NWS values.
T = Trace of Precipitation, MM = Missing Value Source: NWS Daily Summary

Daily Weather History Graph

Daily Weather History Graph

Search for Another Location

Airport:

Trip Planner

Search our weather history database for the weather conditions in past years. The results will help you decide how hot, cold, wet, or windy it might be!

Date:

Astronomy

Nov. 20, 2012 Rise Set
Actual Time 6:17 AM PST 4:38 PM PST
Civil Twilight 5:51 AM PST 5:04 PM PST
Nautical Twilight 5:21 AM PST 5:34 PM PST
Astronomical Twilight 4:51 AM PST 6:04 PM PST
Moon 12:05 PM PST (11/20) No Moon Set
Length of Visible Light 11h 13m
Length of Day
10h 20m
First Quarter, 52% of the Moon is Illuminated
Nov 20
First Quarter
Nov 28
Full
Dec 6
Last Quarter
Dec 13
New
Dec 19
First Quarter

Hourly Weather History & Observations

Time (PST) Temp. Dew Point Humidity Pressure Visibility Wind Dir Wind Speed Gust Speed Precip Events Conditions
12:53 AM 53.1 °F 41.0 °F 64% 30.12 in 10.0 mi West 4.6 mph - N/A   Clear
1:53 AM 52.0 °F 39.9 °F 63% 30.12 in 10.0 mi West 6.9 mph - N/A   Clear
2:53 AM 50.0 °F 39.9 °F 68% 30.10 in 10.0 mi West 5.8 mph - N/A   Clear
3:53 AM 50.0 °F 39.9 °F 68% 30.09 in 10.0 mi WSW 3.5 mph - N/A   Clear
4:53 AM 48.9 °F 39.9 °F 71% 30.10 in 10.0 mi WSW 4.6 mph - N/A   Clear
5:53 AM 48.9 °F 39.0 °F 69% 30.11 in 10.0 mi WSW 4.6 mph - N/A   Clear
6:53 AM 50.0 °F 39.0 °F 66% 30.12 in 10.0 mi WSW 4.6 mph - N/A   Clear
7:53 AM 57.9 °F 45.0 °F 62% 30.12 in 10.0 mi West 5.8 mph - N/A   Clear
8:53 AM 66.0 °F 45.0 °F 47% 30.12 in 10.0 mi NW 4.6 mph - N/A   Clear
9:53 AM 70.0 °F 51.1 °F 51% 30.12 in 10.0 mi NNW 5.8 mph - N/A   Clear
10:53 AM 73.0 °F 44.1 °F 35% 30.09 in 10.0 mi NNW 5.8 mph - N/A   Clear
11:53 AM 77.0 °F 42.1 °F 29% 30.05 in 10.0 mi NNW 3.5 mph - N/A   Clear
12:53 PM 78.1 °F 39.9 °F 25% 30.01 in 10.0 mi WNW 4.6 mph - N/A   Clear
1:53 PM 78.1 °F 39.9 °F 25% 29.99 in 10.0 mi West 3.5 mph - N/A   Clear
2:53 PM 79.0 °F 41.0 °F 26% 29.99 in 10.0 mi NW 4.6 mph - N/A   Clear
3:53 PM 77.0 °F 39.0 °F 25% 29.97 in 10.0 mi Calm Calm - N/A   Clear
4:53 PM 71.1 °F 39.9 °F 32% 29.97 in 10.0 mi Calm Calm - N/A   Clear
5:17 PM 71.6 °F 39.2 °F 31% 29.97 in 4.0 mi Calm Calm - N/A   Haze
5:53 PM 66.0 °F 39.9 °F 38% 29.98 in 10.0 mi Calm Calm - N/A   Clear
6:53 PM 64.0 °F 41.0 °F 43% 29.99 in 10.0 mi Calm Calm - N/A   Clear
7:53 PM 57.0 °F 41.0 °F 55% 30.00 in 10.0 mi Calm Calm - N/A   Clear
8:53 PM 55.0 °F 41.0 °F 59% 30.01 in 10.0 mi West 3.5 mph - N/A   Clear
9:53 PM 53.1 °F 39.0 °F 59% 30.00 in 10.0 mi West 4.6 mph - N/A   Clear
10:53 PM 52.0 °F 39.0 °F 61% 29.99 in 10.0 mi WSW 3.5 mph - N/A   Clear
11:53 PM 50.0 °F 37.0 °F 61% 29.99 in 10.0 mi WSW 3.5 mph - N/A   Clear